Miscellaneous Local Product
Issued by NWS North Platte, NE

Home | Current Version | Previous Version | Text Only | Print | Product List | Glossary On
Versions: 1 2 3 4 5 6 7 8 9 10 11 12 13 14 15 16 17 18 19 20 21 22 23 24 25 26 27 28 29 30 31 32 33 34 35 36 37 38 39 40 41 42 43 44 45 46 47 48 49 50
000
AXUS43 KLBF 250810
MISLBF


WESTERN AND NORTH CENTRAL NEBRASKA HOURLY WEATHER ROUNDUP
NATIONAL WEATHER SERVICE NORTH PLATTE NE
200 AM CST SUN JAN 25 2015

***STATIONS NOT REPORTING VARIABLES SUCH AS SKY/WEATHER OR
PRESSURE ARE PROVIDED BY THE NEBRASKA DEPARTMENT OF
ROADS...RAWS...AND APRS NETWORKS...AND ARE NOT UNDER
NATIONAL WEATHER SERVICE QUALITY CONTROL***

...OBSERVATIONS IN AND NEAR THE EASTERN PANHANDLE OF NEBRASKA...

CITY           SKY/WX    TMP DP  RH WIND       PRES   REMARKS
PINE RIDGE     CLEAR     29  22  75 W5        30.00R WCI  24
CHADRON        CLEAR     34  27  75 W20       30.03S WCI  23
ALLIANCE       CLEAR     35  25  66 NW22G29   30.01R WCI  23
SIDNEY         PTCLDY    37  25  61 NW18G29   30.07R WCI  27
$$

...OBSERVATIONS IN NORTH CENTRAL NEBRASKA...

CITY           SKY/WX    TMP DP  RH WIND       PRES   REMARKS
VALENTINE      PTCLDY    38  30  73 NW21G32   29.89R WCI  28
THEDFORD       PTCLDY    40  31  71 NW23G38   29.90R WCI  29
AINSWORTH      CLOUDY    38  31  75 NW26G38   29.87R WCI  27
O`NEILL        LGT RAIN  36  35  96 NW25G35   29.81R WCI  24
ORD            CLOUDY    40  33  76 NW31G40   29.80R WCI  28
BROKEN BOW     CLOUDY    43  31  62 NW38G46   29.84R
$$

...OBSERVATIONS IN SOUTHWEST NEBRASKA AND FAR NORTHEAST COLORADO...

CITY           SKY/WX    TMP DP  RH WIND       PRES   REMARKS
WRAY           FAIR      39  28  65 NW20G25   30.05S WCI  29
HOLYOKE        FAIR      37  28  70 NW21G29   30.03S WCI  27
IMPERIAL       CLEAR     38  27  64 NW22G30   30.00R WCI  27
OGALLALA       CLEAR     36  29  76 NW16      30.00R WCI  26
NORTH PLATTE   CLEAR     35  29  78 NW14      29.93R WCI  26
MCCOOK         CLEAR     41  28  60 NW23G32   29.94R
LEXINGTON      PTCLDY    43  31  62 NW29G37   29.88R
$$

...NORTH PLATTE AREA...

CITY           SKY/WX    TMP DP  RH WIND       PRES   REMARKS
AIRPORT        CLEAR     35  29  78 NW14      29.93R WCI  26
$$

...SOME WEATHER OBSERVATIONS FROM AROUND THE REGION...

CITY           SKY/WX    TMP DP  RH WIND       PRES   REMARKS
DENVER         PTCLDY    31  26  82 S10       30.13F WCI  22
LARAMIE        MOCLDY    27  21  78 W9        30.14F WCI  18
CHEYENNE       PTCLDY    36  25  64 NW14G23   30.10F WCI  27
SCOTTSBLUFF    PTCLDY    38  27  64 NW21G32   30.06S WCI  28
RAPID CITY     CLEAR     38  23  55 NW21      29.99R WCI  28
PIERRE         CLOUDY    38  33  82 NW17      29.87R WCI  28
WINNER         CLOUDY    40  35  83 NW25G32   29.87R WCI  29
SIOUX FALLS    LGT SNOW  33  31  92 N16       29.72R FOG     WCI  23
OMAHA          LGT RAIN  41  38  89 NW18      29.61S
GRAND ISLAND   CLOUDY    41  35  79 NW30G43   29.79R
KANSAS CITY    DRIZZLE   45  44  97 W12       29.64F
WICHITA        MOCLDY    52  35  52 NW17      29.82S
HAYS           CLEAR     45  28  53 NW30G41   29.91R
LIBERAL        PTCLDY    45  28  53 NW17      30.05R
GOODLAND       CLOUDY    40  27  59 NW26G36   30.04R WCI  29
$$



USA.gov is the U.S. government's official web portal to all federal, state and local government web resources and services.